This demonstration page uses our WeatherBlox Daily Observations layout. Learn more.

Left ArrowRight Arrow

34.74481, -87.66753

Hourly Observations for May 20, 2020

Temp ( °F °C ) Dew Point ( °F °C ) Humidity (%) Winds ( mph kmh ) Pressure ( in mb ) Visibility ( mi km ) Precip ( " mm )
12:53 am 00:53 Clear 56 13.3 54 12.2 93 93 W 3 6 29.84 1010 10 16 0.00 0.00
1:53 am 01:53 Clear 56 13.3 54 12.2 93 93 Calm 29.84 1010 10 16 0.00 0.00
2:53 am 02:53 Clear 56 13.3 54 12.2 93 93 NE 5 7 29.84 1010 10 16 0.00 0.00
3:53 am 03:53 Clear 55 12.8 52 11.1 90 90 Calm 29.85 1011 10 16 0.00 0.00
4:09 am 04:09 Partly Cloudy 54 12.2 52 11.1 93 93 Calm 29.86 1011 10 16 0.00 0.00
4:53 am 04:53 Clear 54 12.2 51 10.6 90 90 Calm 29.85 1011 10 16 0.00 0.00
5:53 am 05:53 Sunny 53 11.7 51 10.6 93 93 WSW 3 6 29.87 1012 10 16 0.00 0.00
6:53 am 06:53 Sunny 57 13.9 54 12.2 90 90 WNW 6 9 29.89 1012 10 16 0.00 0.00
7:29 am 07:29 Partly Cloudy 59 15 56 13.3 90 90 Calm 29.92 1013 10 16 0.00 0.00
7:41 am 07:41 Mostly Cloudy 60 15.6 56 13.3 86 86 Calm 29.92 1013 10 16 0.00 0.00
7:53 am 07:53 Mostly Cloudy 61 16.1 56 13.3 84 84 NNW 6 9 29.91 1013 10 16 0.00 0.00
8:06 am 08:06 Partly Cloudy 62 16.7 57 13.9 84 84 VRB 5 7 29.91 1013 10 16 0.00 0.00
8:25 am 08:25 Mostly Cloudy 63 17.2 57 13.9 81 81 NNW 5 7 29.92 1013 10 16 0.00 0.00
8:53 am 08:53 Cloudy 62 16.7 57 13.9 84 84 NNE 7 11 29.93 1013 10 16 0.00 0.00
9:53 am 09:53 Mostly Cloudy 64 17.8 57 13.9 78 78 Calm 29.92 1013 10 16 0.00 0.00
10:11 am 10:11 Mostly Cloudy 67 19.4 58 14.4 73 73 W 3 6 29.92 1013 10 16 0.00 0.00
10:20 am 10:20 Mostly Sunny 68 20 57 13.9 68 68 Calm 29.92 1013 10 16 0.00 0.00
10:53 am 10:53 Mostly Cloudy 68 20 58 14.4 70 70 E 9 15 29.92 1013 10 16 0.00 0.00
11:15 am 11:15 Partly Cloudy 69 20.6 58 14.4 68 68 ENE 8 13 29.93 1013 10 16 0.00 0.00
11:53 am 11:53 Mostly Sunny 69 20.6 58 14.4 68 68 ENE 9 15 29.93 1013 10 16 0.00 0.00
12:53 pm 12:53 Sunny 72 22.2 56 13.3 57 57 ENE 6 9 29.91 1013 10 16 0.00 0.00
1:53 pm 13:53 Mostly Cloudy 71 21.7 55 12.8 57 57 NE 3 6 29.90 1013 10 16 0.00 0.00
2:53 pm 14:53 Sunny 75 23.9 56 13.3 52 52 VRB 3 6 29.89 1012 10 16 0.00 0.00
3:53 pm 15:53 Sunny 77 25 55 12.8 47 47 VRB 5 7 29.88 1012 10 16 0.00 0.00
4:53 pm 16:53 Sunny 75 23.9 52 11.1 45 45 NNE 5 7 29.88 1012 10 16 0.00 0.00
5:53 pm 17:53 Sunny 76 24.4 51 10.6 42 42 Calm 29.87 1012 10 16 0.00 0.00
6:53 pm 18:53 Sunny 74 23.3 54 12.2 50 50 N 6 9 29.88 1012 10 16 0.00 0.00
7:53 pm 19:53 Cloudy 69 20.6 58 14.4 68 68 NNE 8 13 29.90 1013 10 16 0.00 0.00
8:53 pm 20:53 Cloudy 67 19.4 59 15 76 76 NE 7 11 29.91 1013 10 16 0.00 0.00
9:53 pm 21:53 Mostly Cloudy 66 18.9 59 15 78 78 ENE 7 11 29.91 1013 10 16 0.00 0.00
10:53 pm 22:53 Mostly Clear 64 17.8 59 15 84 84 Calm 29.92 1013 10 16 0.00 0.00
11:53 pm 23:53 Clear 63 17.2 58 14.4 84 84 Calm 29.92 1013 10 16 0.00 0.00

Powered by AerisWeather